TimeEDT,TemperatureF,Dew PointF,Humidity,Sea Level PressureIn,VisibilityMPH,Wind Direction,Wind SpeedMPH,Gust SpeedMPH,PrecipitationIn,Events,Conditions,WindDirDegrees,DateUTC
12:15 AM,44.6,37.4,76,29.70,10.0,West,5.8,-,N/A,,Mostly Cloudy,260,2012-11-02 04:15:00
12:35 AM,44.6,37.4,76,29.70,10.0,West,6.9,-,N/A,,Overcast,270,2012-11-02 04:35:00
12:55 AM,44.6,37.4,76,29.70,10.0,West,6.9,-,N/A,,Overcast,260,2012-11-02 04:55:00
1:15 AM,44.6,37.4,76,29.70,10.0,West,6.9,-,N/A,Rain,Light Rain,270,2012-11-02 05:15:00
1:35 AM,44.6,37.4,76,29.70,10.0,West,10.4,-,N/A,,Mostly Cloudy,280,2012-11-02 05:35:00
1:55 AM,44.6,37.4,76,29.70,10.0,West,10.4,-,N/A,Rain,Light Rain,280,2012-11-02 05:55:00
2:15 AM,44.6,37.4,76,29.70,10.0,West,10.4,-,N/A,,Mostly Cloudy,280,2012-11-02 06:15:00
2:35 AM,44.6,37.4,76,29.70,10.0,West,8.1,-,N/A,,Mostly Cloudy,280,2012-11-02 06:35:00
2:55 AM,44.6,37.4,76,29.70,10.0,West,9.2,-,N/A,,Partly Cloudy,280,2012-11-02 06:55:00
3:15 AM,44.6,37.4,76,29.70,10.0,West,8.1,-,N/A,,Mostly Cloudy,280,2012-11-02 07:15:00
3:55 AM,44.6,37.4,76,29.70,10.0,West,9.2,-,N/A,,Overcast,270,2012-11-02 07:55:00
4:15 AM,42.8,35.6,76,29.69,10.0,West,8.1,-,N/A,,Overcast,280,2012-11-02 08:15:00
4:35 AM,42.8,35.6,76,29.70,10.0,West,9.2,-,N/A,,Mostly Cloudy,270,2012-11-02 08:35:00
4:55 AM,42.8,35.6,76,29.70,10.0,WNW,11.5,-,N/A,,Overcast,290,2012-11-02 08:55:00
5:15 AM,42.8,33.8,70,29.69,10.0,West,13.8,-,N/A,,Mostly Cloudy,280,2012-11-02 09:15:00
5:35 AM,41.0,33.8,76,29.70,10.0,West,10.4,-,N/A,,Scattered Clouds,280,2012-11-02 09:35:00
5:55 AM,39.2,33.8,81,29.69,10.0,West,9.2,-,N/A,,Clear,280,2012-11-02 09:55:00
6:15 AM,39.2,33.8,81,29.69,10.0,WNW,15.0,-,N/A,,Partly Cloudy,290,2012-11-02 10:15:00
6:35 AM,41.0,33.8,76,29.70,10.0,WNW,11.5,-,N/A,,Scattered Clouds,290,2012-11-02 10:35:00
6:55 AM,41.0,33.8,76,29.70,10.0,WNW,8.1,-,N/A,,Partly Cloudy,290,2012-11-02 10:55:00
7:35 AM,39.2,33.8,81,29.71,10.0,West,6.9,-,N/A,,Clear,270,2012-11-02 11:35:00
7:55 AM,39.2,33.8,81,29.71,10.0,West,4.6,-,N/A,,Clear,270,2012-11-02 11:55:00
8:15 AM,39.2,33.8,81,29.72,10.0,West,5.8,-,N/A,,Clear,270,2012-11-02 12:15:00
8:35 AM,41.0,33.8,76,29.72,10.0,West,5.8,-,N/A,,Clear,270,2012-11-02 12:35:00
8:55 AM,41.0,33.8,76,29.73,10.0,West,4.6,-,N/A,,Clear,260,2012-11-02 12:55:00
9:15 AM,42.8,33.8,70,29.73,10.0,West,6.9,-,N/A,,Partly Cloudy,270,2012-11-02 13:15:00
9:55 AM,44.6,35.6,71,29.73,10.0,WNW,9.2,-,N/A,,Clear,290,2012-11-02 13:55:00
10:35 AM,44.6,35.6,71,29.73,10.0,WNW,12.7,-,N/A,,Clear,290,2012-11-02 14:35:00
10:55 AM,44.6,35.6,71,29.73,10.0,WNW,13.8,-,N/A,,Clear,300,2012-11-02 14:55:00
11:15 AM,44.6,35.6,71,29.73,10.0,WNW,11.5,17.3,N/A,,Mostly Cloudy,290,2012-11-02 15:15:00
11:35 AM,44.6,35.6,71,29.73,10.0,WNW,18.4,25.3,N/A,,Overcast,290,2012-11-02 15:35:00
11:55 AM,44.6,35.6,71,29.73,10.0,WNW,17.3,21.9,N/A,,Overcast,290,2012-11-02 15:55:00
12:15 PM,46.4,35.6,66,29.73,10.0,WNW,13.8,-,N/A,,Overcast,290,2012-11-02 16:15:00
12:35 PM,46.4,35.6,66,29.73,10.0,West,11.5,-,N/A,,Mostly Cloudy,280,2012-11-02 16:35:00
12:55 PM,46.4,35.6,66,29.73,10.0,West,10.4,16.1,N/A,,Mostly Cloudy,280,2012-11-02 16:55:00
1:15 PM,46.4,37.4,71,29.72,10.0,NW,12.7,19.6,N/A,,Mostly Cloudy,310,2012-11-02 17:15:00
1:35 PM,46.4,35.6,66,29.71,10.0,WNW,10.4,18.4,N/A,,Mostly Cloudy,300,2012-11-02 17:35:00
1:55 PM,44.6,35.6,71,29.72,8.0,WNW,10.4,16.1,N/A,Rain,Light Rain,300,2012-11-02 17:55:00
2:15 PM,44.6,35.6,71,29.72,10.0,WNW,10.4,-,N/A,,Mostly Cloudy,300,2012-11-02 18:15:00
2:35 PM,46.4,35.6,66,29.71,10.0,WNW,10.4,-,N/A,,Scattered Clouds,290,2012-11-02 18:35:00
2:55 PM,46.4,35.6,66,29.71,10.0,WNW,16.1,-,N/A,,Scattered Clouds,290,2012-11-02 18:55:00
3:15 PM,46.4,35.6,66,29.71,10.0,WNW,12.7,-,N/A,,Scattered Clouds,300,2012-11-02 19:15:00
3:35 PM,46.4,35.6,66,29.72,10.0,NW,11.5,-,N/A,,Mostly Cloudy,310,2012-11-02 19:35:00
3:55 PM,46.4,33.8,62,29.72,10.0,WNW,12.7,23.0,N/A,,Partly Cloudy,300,2012-11-02 19:55:00
4:15 PM,46.4,33.8,62,29.73,10.0,NW,13.8,-,N/A,,Scattered Clouds,310,2012-11-02 20:15:00
4:55 PM,46.4,33.8,62,29.74,10.0,WNW,15.0,-,N/A,,Mostly Cloudy,300,2012-11-02 20:55:00
5:15 PM,46.4,33.8,62,29.74,10.0,WNW,12.7,19.6,N/A,,Scattered Clouds,300,2012-11-02 21:15:00
5:35 PM,46.4,33.8,62,29.75,10.0,WNW,11.5,-,N/A,,Mostly Cloudy,290,2012-11-02 21:35:00
5:55 PM,46.4,33.8,62,29.75,10.0,NW,12.7,-,N/A,,Overcast,310,2012-11-02 21:55:00
6:15 PM,46.4,33.8,62,29.77,10.0,NW,17.3,21.9,N/A,Rain,Light Rain,310,2012-11-02 22:15:00
6:35 PM,44.6,35.6,71,29.78,10.0,NNW,15.0,21.9,N/A,,Light Drizzle,330,2012-11-02 22:35:00
6:55 PM,44.6,35.6,71,29.80,10.0,NW,11.5,-,N/A,,Mostly Cloudy,310,2012-11-02 22:55:00
7:15 PM,44.6,35.6,71,29.80,10.0,NW,16.1,19.6,N/A,,Overcast,310,2012-11-02 23:15:00
7:35 PM,44.6,35.6,71,29.81,10.0,WNW,13.8,23.0,N/A,,Overcast,300,2012-11-02 23:35:00
7:55 PM,44.6,35.6,71,29.82,10.0,NW,15.0,23.0,N/A,,Overcast,320,2012-11-02 23:55:00
8:55 PM,42.8,37.4,81,29.84,10.0,WNW,13.8,-,N/A,,Overcast,300,2012-11-03 00:55:00
9:15 PM,42.8,37.4,81,29.84,10.0,WNW,11.5,-,N/A,,Overcast,300,2012-11-03 01:15:00
9:35 PM,42.8,35.6,76,29.85,10.0,WNW,13.8,-,N/A,,Overcast,300,2012-11-03 01:35:00
9:55 PM,42.8,35.6,76,29.85,10.0,NW,11.5,-,N/A,,Mostly Cloudy,310,2012-11-03 01:55:00
10:15 PM,42.8,35.6,76,29.85,10.0,NW,11.5,-,N/A,,Mostly Cloudy,320,2012-11-03 02:15:00
10:35 PM,42.8,35.6,76,29.86,10.0,NW,9.2,-,N/A,,Mostly Cloudy,310,2012-11-03 02:35:00
10:55 PM,42.8,35.6,76,29.86,10.0,NW,13.8,-,N/A,,Overcast,310,2012-11-03 02:55:00
11:15 PM,42.8,35.6,76,29.86,10.0,NW,10.4,-,N/A,,Overcast,310,2012-11-03 03:15:00
11:35 PM,42.8,35.6,76,29.86,10.0,WNW,11.5,-,N/A,,Overcast,300,2012-11-03 03:35:00
11:55 PM,42.8,33.8,70,29.86,10.0,NW,13.8,-,N/A,,Overcast,310,2012-11-03 03:55:00